When you browse on this site, cookies collect data to enhance your experience and personalize the content and advertising you see.
Visit our Privacy Policy to learn more. By continuing to use the site, you agree to this use of cookies and data.

Previsão horária em Slopygino

Hoje, 11 Julho, Sábado

Tempo Temperatura Precipitação Vento Pressão Humidade
00:00 +15°C° 0 mm 2 m/s 751 mmHg 98%
01:00 +15°C° 0 mm 2 m/s 751 mmHg 98%
02:00 +15°C° 0 mm 2 m/s 751 mmHg 99%
03:00 +16°C° 0.4 mm 2 m/s 751 mmHg 98%
04:00 +17°C° 0.4 mm 3 m/s 750 mmHg 98%
05:00 +17°C° 0.4 mm 4 m/s 749 mmHg 98%
06:00 +18°C° 0.4 mm 4 m/s 749 mmHg 97%
07:00 +17°C° 0.4 mm 5 m/s 749 mmHg 96%
08:00 +19°C° 0 mm 5 m/s 750 mmHg 95%
09:00 +19°C° 0.1 mm 6 m/s 750 mmHg 83%
10:00 +18°C° 0.1 mm 7 m/s 751 mmHg 72%
11:00 +20°C° 0.1 mm 7 m/s 751 mmHg 60%
12:00 +20°C° 0 mm 7 m/s 752 mmHg 56%
13:00 +20°C° 0 mm 7 m/s 752 mmHg 52%
14:00 +21°C° 0 mm 7 m/s 753 mmHg 49%
15:00 +21°C° 0 mm 7 m/s 753 mmHg 50%
16:00 +20°C° 0 mm 6 m/s 754 mmHg 51%
17:00 +20°C° 0 mm 6 m/s 754 mmHg 52%
18:00 +19°C° 0 mm 5 m/s 755 mmHg 58%
19:00 +17°C° 0 mm 4 m/s 755 mmHg 65%
20:00 +16°C° 0 mm 3 m/s 756 mmHg 71%
21:00 +14°C° 0 mm 3 m/s 756 mmHg 77%
22:00 +12°C° 0 mm 3 m/s 757 mmHg 82%
23:00 +11°C° 0 mm 3 m/s 757 mmHg 88%

Amanhã, 12 Julho, Domingo

Tempo Temperatura Precipitação Vento Pressão Humidade
00:00 +12°C° 0 mm 2 m/s 757 mmHg 91%
01:00 +10°C° 0 mm 2 m/s 757 mmHg 93%
02:00 +10°C° 0 mm 2 m/s 758 mmHg 96%
03:00 +10°C° 0 mm 2 m/s 758 mmHg 94%
04:00 +11°C° 0 mm 1 m/s 758 mmHg 93%
05:00 +12°C° 0 mm 1 m/s 758 mmHg 91%
06:00 +13°C° 0 mm 1 m/s 758 mmHg 85%
07:00 +15°C° 0 mm 1 m/s 758 mmHg 79%
08:00 +16°C° 0 mm 1 m/s 758 mmHg 72%
09:00 +18°C° 0 mm 1 m/s 758 mmHg 67%
10:00 +19°C° 0 mm 1 m/s 758 mmHg 61%
11:00 +19°C° 0 mm 2 m/s 758 mmHg 56%
12:00 +21°C° 0.1 mm 1 m/s 758 mmHg 55%
13:00 +21°C° 0.1 mm 1 m/s 758 mmHg 54%
14:00 +21°C° 0.1 mm 1 m/s 757 mmHg 54%
15:00 +21°C° 0.2 mm 1 m/s 757 mmHg 58%
16:00 +20°C° 0.2 mm 2 m/s 757 mmHg 63%
17:00 +19°C° 0.2 mm 2 m/s 757 mmHg 67%
18:00 +19°C° 0.2 mm 1 m/s 757 mmHg 74%
19:00 +18°C° 0.2 mm 1 m/s 757 mmHg 81%
20:00 +15°C° 0.2 mm 1 m/s 757 mmHg 88%
21:00 +14°C° 0 mm 1 m/s 757 mmHg 90%
22:00 +14°C° 0 mm 1 m/s 757 mmHg 91%
23:00 +13°C° 0 mm 1 m/s 757 mmHg 93%

Depois de amanhã, 13 Julho, Segunda-feira

Tempo Temperatura Precipitação Vento Pressão Humidade
00:00 +12°C° 0 mm 2 m/s 757 mmHg 94%
01:00 +10°C° 0 mm 2 m/s 757 mmHg 94%
02:00 +10°C° 0 mm 2 m/s 757 mmHg 95%
03:00 +10°C° 0 mm 2 m/s 757 mmHg 94%
04:00 +10°C° 0 mm 2 m/s 757 mmHg 94%
05:00 +10°C° 0 mm 2 m/s 756 mmHg 94%
06:00 +13°C° 0 mm 2 m/s 756 mmHg 87%
07:00 +14°C° 0 mm 2 m/s 756 mmHg 79%
08:00 +16°C° 0 mm 2 m/s 756 mmHg 72%
09:00 +18°C° 0 mm 2 m/s 756 mmHg 64%
10:00 +19°C° 0 mm 2 m/s 756 mmHg 56%
11:00 +20°C° 0 mm 2 m/s 755 mmHg 47%
12:00 +21°C° 0 mm 2 m/s 755 mmHg 45%
13:00 +21°C° 0 mm 2 m/s 755 mmHg 42%
14:00 +23°C° 0 mm 2 m/s 755 mmHg 39%
15:00 +23°C° 0 mm 2 m/s 755 mmHg 43%
16:00 +23°C° 0 mm 2 m/s 755 mmHg 46%
17:00 +21°C° 0 mm 3 m/s 754 mmHg 50%
18:00 +20°C° 0 mm 2 m/s 754 mmHg 58%
19:00 +18°C° 0 mm 2 m/s 754 mmHg 67%
20:00 +18°C° 0 mm 1 m/s 754 mmHg 76%
21:00 +15°C° 0 mm 1 m/s 755 mmHg 79%
22:00 +14°C° 0 mm 2 m/s 755 mmHg 81%
23:00 +13°C° 0 mm 2 m/s 755 mmHg 84%

14 Julho, Terça-feira

Tempo Temperatura Precipitação Vento Pressão Humidade
00:00 +12°C° 0 mm 2 m/s 755 mmHg 86%
01:00 +12°C° 0 mm 2 m/s 755 mmHg 89%
02:00 +10°C° 0 mm 2 m/s 755 mmHg 91%
03:00 +10°C° 0 mm 2 m/s 755 mmHg 91%
04:00 +10°C° 0 mm 2 m/s 756 mmHg 91%
05:00 +10°C° 0 mm 2 m/s 756 mmHg 91%
06:00 +13°C° 0 mm 2 m/s 756 mmHg 82%
07:00 +15°C° 0 mm 2 m/s 756 mmHg 73%
08:00 +16°C° 0 mm 3 m/s 756 mmHg 63%
09:00 +18°C° 0 mm 3 m/s 756 mmHg 58%
10:00 +19°C° 0 mm 3 m/s 756 mmHg 52%
11:00 +20°C° 0 mm 2 m/s 756 mmHg 46%
12:00 +20°C° 0 mm 3 m/s 756 mmHg 45%
13:00 +21°C° 0 mm 3 m/s 756 mmHg 44%
14:00 +22°C° 0 mm 3 m/s 756 mmHg 43%
15:00 +23°C° 0 mm 2 m/s 756 mmHg 44%
16:00 +21°C° 0 mm 2 m/s 756 mmHg 45%
17:00 +21°C° 0 mm 2 m/s 756 mmHg 47%
18:00 +21°C° 0 mm 1 m/s 756 mmHg 54%
19:00 +19°C° 0 mm 1 m/s 756 mmHg 62%
20:00 +18°C° 0 mm 1 m/s 756 mmHg 69%
21:00 +15°C° 0 mm 1 m/s 756 mmHg 72%
22:00 +13°C° 0 mm 0 m/s 756 mmHg 75%
23:00 +11°C° 0 mm 0 m/s 757 mmHg 77%

15 Julho, Quarta-feira

Tempo Temperatura Precipitação Vento Pressão Humidade
00:00 +11°C° 0 mm 0 m/s 757 mmHg 79%
01:00 +11°C° 0 mm 0 m/s 757 mmHg 81%
02:00 +10°C° 0 mm 0 m/s 757 mmHg 83%
03:00 +11°C° 0 mm 0 m/s 757 mmHg 82%
04:00 +11°C° 0 mm 0 m/s 757 mmHg 82%
05:00 +11°C° 0 mm 0 m/s 757 mmHg 81%
06:00 +14°C° 0 mm 0 m/s 757 mmHg 74%
07:00 +16°C° 0 mm 0 m/s 757 mmHg 67%
08:00 +18°C° 0 mm 0 m/s 757 mmHg 60%
09:00 +20°C° 0 mm 0 m/s 757 mmHg 55%
10:00 +21°C° 0 mm 0 m/s 756 mmHg 50%
11:00 +23°C° 0 mm 0 m/s 756 mmHg 45%
12:00 +25°C° 0 mm 1 m/s 756 mmHg 44%
13:00 +25°C° 0 mm 1 m/s 756 mmHg 43%
14:00 +25°C° 0 mm 1 m/s 755 mmHg 41%
15:00 +25°C° 0 mm 1 m/s 755 mmHg 43%
16:00 +24°C° 0 mm 1 m/s 755 mmHg 44%
17:00 +24°C° 0 mm 1 m/s 755 mmHg 46%
18:00 +22°C° 0 mm 1 m/s 755 mmHg 53%
19:00 +21°C° 0 mm 1 m/s 755 mmHg 60%
20:00 +19°C° 0 mm 1 m/s 755 mmHg 67%
21:00 +18°C° 0 mm 1 m/s 754 mmHg 68%
22:00 +15°C° 0 mm 1 m/s 754 mmHg 69%
23:00 +14°C° 0 mm 1 m/s 754 mmHg 70%

16 Julho, Quinta-feira

Tempo Temperatura Precipitação Vento Pressão Humidade
00:00 +14°C° 0 mm 1 m/s 754 mmHg 74%
01:00 +12°C° 0 mm 0 m/s 754 mmHg 77%
02:00 +12°C° 0 mm 0 m/s 754 mmHg 80%
03:00 +12°C° 0 mm 0 m/s 754 mmHg 81%
04:00 +12°C° 0 mm 0 m/s 753 mmHg 82%
05:00 +12°C° 0 mm 0 m/s 753 mmHg 83%
06:00 +15°C° 0 mm 1 m/s 753 mmHg 76%
07:00 +19°C° 0 mm 1 m/s 752 mmHg 69%
08:00 +21°C° 0 mm 1 m/s 752 mmHg 62%
09:00 +22°C° 0 mm 1 m/s 752 mmHg 57%
10:00 +24°C° 0 mm 1 m/s 751 mmHg 51%
11:00 +25°C° 0 mm 1 m/s 751 mmHg 45%
12:00 +26°C° 0 mm 1 m/s 750 mmHg 44%
13:00 +26°C° 0 mm 1 m/s 750 mmHg 42%
14:00 +27°C° 0 mm 1 m/s 749 mmHg 41%
15:00 +26°C° 0 mm 1 m/s 749 mmHg 42%
16:00 +26°C° 0 mm 1 m/s 749 mmHg 44%
17:00 +25°C° 0 mm 1 m/s 748 mmHg 45%
18:00 +24°C° 0 mm 1 m/s 748 mmHg 53%
19:00 +22°C° 0 mm 1 m/s 748 mmHg 60%
20:00 +21°C° 0 mm 1 m/s 748 mmHg 67%
21:00 +19°C° 0 mm 1 m/s 748 mmHg 72%
22:00 +18°C° 0 mm 1 m/s 748 mmHg 77%
23:00 +16°C° 0 mm 2 m/s 748 mmHg 82%
Mostrar mais